owner,sensor,date,latitude,longitude,vertical_datum,sea_water_practical_salinity,qcFlag 
COMPS,ioos:station:USF.COMPS:ANC:1,2012-06-01T00:00:00Z,28.1930,-82.7890,1.0,30.068,1111122 
COMPS,ioos:station:USF.COMPS:ANC:1,2012-06-01T00:06:00Z,28.1930,-82.7890,1.0,30.047,1111122 
COMPS,ioos:station:USF.COMPS:ANC:1,2012-06-01T00:12:00Z,28.1930,-82.7890,1.0,30.013,1111122 
COMPS,ioos:station:USF.COMPS:ANC:1,2012-06-01T00:18:00Z,28.1930,-82.7890,1.0,29.986,1111122 
COMPS,ioos:station:USF.COMPS:ANC:1,2012-06-01T00:24:00Z,28.1930,-82.7890,1.0,29.971,1111122 
COMPS,ioos:station:USF.COMPS:ANC:1,2012-06-01T00:30:00Z,28.1930,-82.7890,1.0,29.951,1111122 
COMPS,ioos:station:USF.COMPS:ANC:1,2012-06-01T00:36:00Z,28.1930,-82.7890,1.0,30.037,1111122 
COMPS,ioos:station:USF.COMPS:ANC:1,2012-06-01T00:42:00Z,28.1930,-82.7890,1.0,30.056,1111122 
COMPS,ioos:station:USF.COMPS:ANC:1,2012-06-01T00:48:00Z,28.1930,-82.7890,1.0,30.082,1111122 
COMPS,ioos:station:USF.COMPS:ANC:1,2012-06-01T00:54:00Z,28.1930,-82.7890,0.0,30.114,1111122 
COMPS,ioos:station:USF.COMPS:ANC:1,2012-06-01T01:00:00Z,28.1930,-82.7890,1.0,30.169,1111122 
COMPS,ioos:station:USF.COMPS:ANC:1,2012-06-01T01:06:00Z,28.1930,-82.7890,1.0,30.182,1111122 
COMPS,ioos:station:USF.COMPS:ANC:1,2012-06-01T01:12:00Z,28.1930,-82.7890,1.0,30.183,1111122 
COMPS,ioos:station:USF.COMPS:ANC:1,2012-06-01T01:18:00Z,28.1930,-82.7890,1.0,30.123,1111122 
COMPS,ioos:station:USF.COMPS:ANC:1,2012-06-01T01:24:00Z,28.1930,-82.7890,1.0,30.255,1111122 
COMPS,ioos:station:USF.COMPS:ANC:1,2012-06-01T01:30:00Z,28.1930,-82.7890,1.0,30.275,1111122 
COMPS,ioos:station:USF.COMPS:ANC:1,2012-06-01T01:36:00Z,28.1930,-82.7890,1.0,30.302,1111122 
COMPS,ioos:station:USF.COMPS:ANC:1,2012-06-01T01:42:00Z,28.1930,-82.7890,1.0,30.315,1111122 
COMPS,ioos:station:USF.COMPS:ANC:1,2012-06-01T01:48:00Z,28.1930,-82.7890,1.0,30.329,1111122 
COMPS,ioos:station:USF.COMPS:ANC:1,2012-06-01T01:54:00Z,28.1930,-82.7890,0.0,30.268,1111122 
COMPS,ioos:station:USF.COMPS:ANC:1,2012-06-01T02:00:00Z,28.1930,-82.7890,1.0,30.229,1111122 
COMPS,ioos:station:USF.COMPS:ANC:1,2012-06-01T02:06:00Z,28.1930,-82.7890,1.0,30.236,1111122 
COMPS,ioos:station:USF.COMPS:ANC:1,2012-06-01T02:12:00Z,28.1930,-82.7890,1.0,30.236,1111122 
COMPS,ioos:station:USF.COMPS:ANC:1,2012-06-01T02:18:00Z,28.1930,-82.7890,1.0,30.249,1111122 
COMPS,ioos:station:USF.COMPS:ANC:1,2012-06-01T02:24:00Z,28.1930,-82.7890,1.0,30.249,1111122 
COMPS,ioos:station:USF.COMPS:ANC:1,2012-06-01T02:30:00Z,28.1930,-82.7890,1.0,30.248,1111122 
COMPS,ioos:station:USF.COMPS:ANC:1,2012-06-01T02:36:00Z,28.1930,-82.7890,1.0,30.248,1111122 
COMPS,ioos:station:USF.COMPS:ANC:1,2012-06-01T02:42:00Z,28.1930,-82.7890,1.0,30.247,1111122 
COMPS,ioos:station:USF.COMPS:ANC:1,2012-06-01T02:48:00Z,28.1930,-82.7890,1.0,30.267,1111122 
COMPS,ioos:station:USF.COMPS:ANC:1,2012-06-01T02:54:00Z,28.1930,-82.7890,0.0,30.261,1111122 
COMPS,ioos:station:USF.COMPS:ANC:1,2012-06-01T03:00:00Z,28.1930,-82.7890,1.0,30.273,1111122 
COMPS,ioos:station:USF.COMPS:ANC:1,2012-06-01T03:06:00Z,28.1930,-82.7890,1.0,30.285,1111122 
COMPS,ioos:station:USF.COMPS:ANC:1,2012-06-01T03:12:00Z,28.1930,-82.7890,1.0,30.285,1111122 
COMPS,ioos:station:USF.COMPS:ANC:1,2012-06-01T03:18:00Z,28.1930,-82.7890,1.0,30.305,1111122 
COMPS,ioos:station:USF.COMPS:ANC:1,2012-06-01T03:24:00Z,28.1930,-82.7890,1.0,30.298,1111122 
COMPS,ioos:station:USF.COMPS:ANC:1,2012-06-01T03:30:00Z,28.1930,-82.7890,1.0,30.291,1111122 
COMPS,ioos:station:USF.COMPS:ANC:1,2012-06-01T03:36:00Z,28.1930,-82.7890,1.0,30.304,1111122 
COMPS,ioos:station:USF.COMPS:ANC:1,2012-06-01T03:42:00Z,28.1930,-82.7890,1.0,30.31,1111122 
COMPS,ioos:station:USF.COMPS:ANC:1,2012-06-01T03:48:00Z,28.1930,-82.7890,1.0,30.31,1111122 
COMPS,ioos:station:USF.COMPS:ANC:1,2012-06-01T03:54:00Z,28.1930,-82.7890,0.0,30.282,1111122 
COMPS,ioos:station:USF.COMPS:ANC:1,2012-06-01T04:00:00Z,28.1930,-82.7890,1.0,30.315,1111122 
COMPS,ioos:station:USF.COMPS:ANC:1,2012-06-01T04:06:00Z,28.1930,-82.7890,1.0,30.335,1111122 
COMPS,ioos:station:USF.COMPS:ANC:1,2012-06-01T04:12:00Z,28.1930,-82.7890,1.0,30.349,1111122 
COMPS,ioos:station:USF.COMPS:ANC:1,2012-06-01T04:18:00Z,28.1930,-82.7890,1.0,30.349,1111122 
COMPS,ioos:station:USF.COMPS:ANC:1,2012-06-01T04:24:00Z,28.1930,-82.7890,1.0,30.37,1111122 
COMPS,ioos:station:USF.COMPS:ANC:1,2012-06-01T04:30:00Z,28.1930,-82.7890,1.0,30.397,1111122 
COMPS,ioos:station:USF.COMPS:ANC:1,2012-06-01T04:36:00Z,28.1930,-82.7890,1.0,30.377,1111122 
COMPS,ioos:station:USF.COMPS:ANC:1,2012-06-01T04:42:00Z,28.1930,-82.7890,1.0,30.404,1111122 
COMPS,ioos:station:USF.COMPS:ANC:1,2012-06-01T04:48:00Z,28.1930,-82.7890,1.0,30.392,1111122 
COMPS,ioos:station:USF.COMPS:ANC:1,2012-06-01T04:54:00Z,28.1930,-82.7890,0.0,30.374,1111122 
COMPS,ioos:station:USF.COMPS:ANC:1,2012-06-01T05:00:00Z,28.1930,-82.7890,1.0,30.374,1111122 
COMPS,ioos:station:USF.COMPS:ANC:1,2012-06-01T05:06:00Z,28.1930,-82.7890,1.0,30.374,1111122 
COMPS,ioos:station:USF.COMPS:ANC:1,2012-06-01T05:12:00Z,28.1930,-82.7890,1.0,30.368,1111122 
COMPS,ioos:station:USF.COMPS:ANC:1,2012-06-01T05:18:00Z,28.1930,-82.7890,1.0,30.349,1111122 
COMPS,ioos:station:USF.COMPS:ANC:1,2012-06-01T05:24:00Z,28.1930,-82.7890,1.0,30.361,1111122 
COMPS,ioos:station:USF.COMPS:ANC:1,2012-06-01T05:30:00Z,28.1930,-82.7890,1.0,30.355,1111122 
COMPS,ioos:station:USF.COMPS:ANC:1,2012-06-01T05:36:00Z,28.1930,-82.7890,1.0,30.361,1111122 
COMPS,ioos:station:USF.COMPS:ANC:1,2012-06-01T05:42:00Z,28.1930,-82.7890,1.0,30.361,1111122 
COMPS,ioos:station:USF.COMPS:ANC:1,2012-06-01T05:48:00Z,28.1930,-82.7890,1.0,30.348,1111122 
COMPS,ioos:station:USF.COMPS:ANC:1,2012-06-01T05:54:00Z,28.1930,-82.7890,0.0,30.352,1111122 
COMPS,ioos:station:USF.COMPS:ANC:1,2012-06-01T06:00:00Z,28.1930,-82.7890,1.0,30.34,1111122 
COMPS,ioos:station:USF.COMPS:ANC:1,2012-06-01T06:06:00Z,28.1930,-82.7890,1.0,30.352,1111122 
COMPS,ioos:station:USF.COMPS:ANC:1,2012-06-01T06:12:00Z,28.1930,-82.7890,1.0,30.365,1111122 
COMPS,ioos:station:USF.COMPS:ANC:1,2012-06-01T06:18:00Z,28.1930,-82.7890,1.0,30.365,1111122 
COMPS,ioos:station:USF.COMPS:ANC:1,2012-06-01T06:24:00Z,28.1930,-82.7890,1.0,30.365,1111122 
COMPS,ioos:station:USF.COMPS:ANC:1,2012-06-01T06:30:00Z,28.1930,-82.7890,1.0,30.385,1111122 
COMPS,ioos:station:USF.COMPS:ANC:1,2012-06-01T06:36:00Z,28.1930,-82.7890,1.0,30.406,1111122 
COMPS,ioos:station:USF.COMPS:ANC:1,2012-06-01T06:42:00Z,28.1930,-82.7890,1.0,30.406,1111122 
COMPS,ioos:station:USF.COMPS:ANC:1,2012-06-01T06:48:00Z,28.1930,-82.7890,1.0,30.375,1111122 
COMPS,ioos:station:USF.COMPS:ANC:1,2012-06-01T06:54:00Z,28.1930,-82.7890,1.0,30.4,1111122 
COMPS,ioos:station:USF.COMPS:ANC:1,2012-06-01T07:00:00Z,28.1930,-82.7890,1.0,30.412,1111122 
COMPS,ioos:station:USF.COMPS:ANC:1,2012-06-01T07:06:00Z,28.1930,-82.7890,1.0,30.412,1111122 
COMPS,ioos:station:USF.COMPS:ANC:1,2012-06-01T07:12:00Z,28.1930,-82.7890,1.0,30.412,1111122 
COMPS,ioos:station:USF.COMPS:ANC:1,2012-06-01T07:18:00Z,28.1930,-82.7890,1.0,30.425,1111122 
COMPS,ioos:station:USF.COMPS:ANC:1,2012-06-01T07:24:00Z,28.1930,-82.7890,1.0,30.426,1111122 
COMPS,ioos:station:USF.COMPS:ANC:1,2012-06-01T07:30:00Z,28.1930,-82.7890,1.0,30.427,1111122 
COMPS,ioos:station:USF.COMPS:ANC:1,2012-06-01T07:36:00Z,28.1930,-82.7890,1.0,30.465,1111122 
COMPS,ioos:station:USF.COMPS:ANC:1,2012-06-01T07:42:00Z,28.1930,-82.7890,1.0,30.486,1111122 
COMPS,ioos:station:USF.COMPS:ANC:1,2012-06-01T07:48:00Z,28.1930,-82.7890,1.0,30.493,1111122 
COMPS,ioos:station:USF.COMPS:ANC:1,2012-06-01T07:54:00Z,28.1930,-82.7890,0.0,30.487,1111122 
COMPS,ioos:station:USF.COMPS:ANC:1,2012-06-01T08:00:00Z,28.1930,-82.7890,1.0,30.496,1111122 
COMPS,ioos:station:USF.COMPS:ANC:1,2012-06-01T08:06:00Z,28.1930,-82.7890,1.0,30.503,1111122 
COMPS,ioos:station:USF.COMPS:ANC:1,2012-06-01T08:12:00Z,28.1930,-82.7890,1.0,30.491,1111122 
COMPS,ioos:station:USF.COMPS:ANC:1,2012-06-01T08:18:00Z,28.1930,-82.7890,1.0,30.48,1111122 
COMPS,ioos:station:USF.COMPS:ANC:1,2012-06-01T08:24:00Z,28.1930,-82.7890,1.0,30.467,1111122 
COMPS,ioos:station:USF.COMPS:ANC:1,2012-06-01T08:30:00Z,28.1930,-82.7890,1.0,30.487,1111122 
COMPS,ioos:station:USF.COMPS:ANC:1,2012-06-01T08:36:00Z,28.1930,-82.7890,1.0,30.48,1111122 
COMPS,ioos:station:USF.COMPS:ANC:1,2012-06-01T08:42:00Z,28.1930,-82.7890,1.0,30.467,1111122 
COMPS,ioos:station:USF.COMPS:ANC:1,2012-06-01T08:48:00Z,28.1930,-82.7890,1.0,30.454,1111122 
COMPS,ioos:station:USF.COMPS:ANC:1,2012-06-01T08:54:00Z,28.1930,-82.7890,0.0,30.446,1111122 
COMPS,ioos:station:USF.COMPS:ANC:1,2012-06-01T09:00:00Z,28.1930,-82.7890,1.0,30.435,1111122 
COMPS,ioos:station:USF.COMPS:ANC:1,2012-06-01T09:06:00Z,28.1930,-82.7890,1.0,30.403,1111122 
COMPS,ioos:station:USF.COMPS:ANC:1,2012-06-01T09:12:00Z,28.1930,-82.7890,1.0,30.364,1111122 
COMPS,ioos:station:USF.COMPS:ANC:1,2012-06-01T09:18:00Z,28.1930,-82.7890,1.0,30.35,1111122 
COMPS,ioos:station:USF.COMPS:ANC:1,2012-06-01T09:24:00Z,28.1930,-82.7890,1.0,30.323,1111122 
COMPS,ioos:station:USF.COMPS:ANC:1,2012-06-01T09:30:00Z,28.1930,-82.7890,1.0,30.297,1111122 
COMPS,ioos:station:USF.COMPS:ANC:1,2012-06-01T09:36:00Z,28.1930,-82.7890,1.0,30.297,1111122 
COMPS,ioos:station:USF.COMPS:ANC:1,2012-06-01T09:42:00Z,28.1930,-82.7890,1.0,30.297,1111122 
COMPS,ioos:station:USF.COMPS:ANC:1,2012-06-01T09:48:00Z,28.1930,-82.7890,1.0,30.296,1111122 
COMPS,ioos:station:USF.COMPS:ANC:1,2012-06-01T09:54:00Z,28.1930,-82.7890,0.0,30.274,1111122 
COMPS,ioos:station:USF.COMPS:ANC:1,2012-06-01T10:00:00Z,28.1930,-82.7890,1.0,30.277,1111122 
COMPS,ioos:station:USF.COMPS:ANC:1,2012-06-01T10:06:00Z,28.1930,-82.7890,1.0,30.27,1111122 
COMPS,ioos:station:USF.COMPS:ANC:1,2012-06-01T10:12:00Z,28.1930,-82.7890,1.0,30.257,1111122 
COMPS,ioos:station:USF.COMPS:ANC:1,2012-06-01T10:18:00Z,28.1930,-82.7890,1.0,30.244,1111122 
COMPS,ioos:station:USF.COMPS:ANC:1,2012-06-01T10:24:00Z,28.1930,-82.7890,1.0,30.238,1111122 
COMPS,ioos:station:USF.COMPS:ANC:1,2012-06-01T10:30:00Z,28.1930,-82.7890,1.0,30.205,1111122 
COMPS,ioos:station:USF.COMPS:ANC:1,2012-06-01T10:36:00Z,28.1930,-82.7890,1.0,30.199,1111122 
COMPS,ioos:station:USF.COMPS:ANC:1,2012-06-01T10:42:00Z,28.1930,-82.7890,1.0,30.186,1111122 
COMPS,ioos:station:USF.COMPS:ANC:1,2012-06-01T10:48:00Z,28.1930,-82.7890,1.0,30.167,1111122 
COMPS,ioos:station:USF.COMPS:ANC:1,2012-06-01T10:54:00Z,28.1930,-82.7890,0.0,30.151,1111122 
COMPS,ioos:station:USF.COMPS:ANC:1,2012-06-01T11:00:00Z,28.1930,-82.7890,1.0,30.147,1111122 
COMPS,ioos:station:USF.COMPS:ANC:1,2012-06-01T11:06:00Z,28.1930,-82.7890,1.0,30.147,1111122 
COMPS,ioos:station:USF.COMPS:ANC:1,2012-06-01T11:12:00Z,28.1930,-82.7890,1.0,30.147,1111122 
COMPS,ioos:station:USF.COMPS:ANC:1,2012-06-01T11:18:00Z,28.1930,-82.7890,1.0,30.147,1111122 
COMPS,ioos:station:USF.COMPS:ANC:1,2012-06-01T11:24:00Z,28.1930,-82.7890,1.0,30.134,1111122 
COMPS,ioos:station:USF.COMPS:ANC:1,2012-06-01T11:30:00Z,28.1930,-82.7890,1.0,30.127,1111122 
COMPS,ioos:station:USF.COMPS:ANC:1,2012-06-01T11:36:00Z,28.1930,-82.7890,1.0,30.121,1111122 
COMPS,ioos:station:USF.COMPS:ANC:1,2012-06-01T11:42:00Z,28.1930,-82.7890,1.0,30.121,1111122 
COMPS,ioos:station:USF.COMPS:ANC:1,2012-06-01T11:48:00Z,28.1930,-82.7890,1.0,30.121,1111122 
COMPS,ioos:station:USF.COMPS:ANC:1,2012-06-01T11:54:00Z,28.1930,-82.7890,0.0,30.114,1111122 
COMPS,ioos:station:USF.COMPS:ANC:1,2012-06-01T12:00:00Z,28.1930,-82.7890,1.0,30.101,1111122 
COMPS,ioos:station:USF.COMPS:ANC:1,2012-06-01T12:06:00Z,28.1930,-82.7890,1.0,30.094,1111122 
COMPS,ioos:station:USF.COMPS:ANC:1,2012-06-01T12:12:00Z,28.1930,-82.7890,1.0,30.081,1111122 
COMPS,ioos:station:USF.COMPS:ANC:1,2012-06-01T12:18:00Z,28.1930,-82.7890,1.0,30.061,1111122 
COMPS,ioos:station:USF.COMPS:ANC:1,2012-06-01T12:24:00Z,28.1930,-82.7890,1.0,30.054,1111122 
COMPS,ioos:station:USF.COMPS:ANC:1,2012-06-01T12:30:00Z,28.1930,-82.7890,1.0,30.048,1111122 
COMPS,ioos:station:USF.COMPS:ANC:1,2012-06-01T12:36:00Z,28.1930,-82.7890,1.0,30.021,1111122 
COMPS,ioos:station:USF.COMPS:ANC:1,2012-06-01T12:42:00Z,28.1930,-82.7890,1.0,30.039,1111122 
COMPS,ioos:station:USF.COMPS:ANC:1,2012-06-01T12:48:00Z,28.1930,-82.7890,1.0,30.039,1111122 
COMPS,ioos:station:USF.COMPS:ANC:1,2012-06-01T12:54:00Z,28.1930,-82.7890,0.0,30.042,1111122 
COMPS,ioos:station:USF.COMPS:ANC:1,2012-06-01T13:00:00Z,28.1930,-82.7890,1.0,30.032,1111122 
COMPS,ioos:station:USF.COMPS:ANC:1,2012-06-01T13:06:00Z,28.1930,-82.7890,1.0,30.013,1111122 
COMPS,ioos:station:USF.COMPS:ANC:1,2012-06-01T13:12:00Z,28.1930,-82.7890,1.0,30.012,1111122 
COMPS,ioos:station:USF.COMPS:ANC:1,2012-06-01T13:18:00Z,28.1930,-82.7890,1.0,29.991,1111122 
COMPS,ioos:station:USF.COMPS:ANC:1,2012-06-01T13:24:00Z,28.1930,-82.7890,1.0,30.03,1111122 
COMPS,ioos:station:USF.COMPS:ANC:1,2012-06-01T13:30:00Z,28.1930,-82.7890,1.0,30.036,1111122 
COMPS,ioos:station:USF.COMPS:ANC:1,2012-06-01T13:36:00Z,28.1930,-82.7890,1.0,30.042,1111122 
COMPS,ioos:station:USF.COMPS:ANC:1,2012-06-01T13:42:00Z,28.1930,-82.7890,1.0,30.035,1111122 
COMPS,ioos:station:USF.COMPS:ANC:1,2012-06-01T13:48:00Z,28.1930,-82.7890,1.0,30.04,1111122 
COMPS,ioos:station:USF.COMPS:ANC:1,2012-06-01T13:54:00Z,28.1930,-82.7890,0.0,30.042,1111122 
COMPS,ioos:station:USF.COMPS:ANC:1,2012-06-01T14:00:00Z,28.1930,-82.7890,1.0,30.045,1111122 
COMPS,ioos:station:USF.COMPS:ANC:1,2012-06-01T14:06:00Z,28.1930,-82.7890,1.0,30.037,1111122 
COMPS,ioos:station:USF.COMPS:ANC:1,2012-06-01T14:12:00Z,28.1930,-82.7890,1.0,30.017,1111122 
COMPS,ioos:station:USF.COMPS:ANC:1,2012-06-01T14:18:00Z,28.1930,-82.7890,1.0,30.029,1111122 
COMPS,ioos:station:USF.COMPS:ANC:1,2012-06-01T14:24:00Z,28.1930,-82.7890,1.0,30.022,1111122 
COMPS,ioos:station:USF.COMPS:ANC:1,2012-06-01T14:30:00Z,28.1930,-82.7890,1.0,30.014,1111122 
COMPS,ioos:station:USF.COMPS:ANC:1,2012-06-01T14:36:00Z,28.1930,-82.7890,1.0,30.013,1111122 
COMPS,ioos:station:USF.COMPS:ANC:1,2012-06-01T14:42:00Z,28.1930,-82.7890,1.0,30.012,1111122 
COMPS,ioos:station:USF.COMPS:ANC:1,2012-06-01T14:48:00Z,28.1930,-82.7890,1.0,30.011,1111122 
COMPS,ioos:station:USF.COMPS:ANC:1,2012-06-01T14:54:00Z,28.1930,-82.7890,1.0,30.036,1111122 
COMPS,ioos:station:USF.COMPS:ANC:1,2012-06-01T15:00:00Z,28.1930,-82.7890,1.0,30.054,1111122 
COMPS,ioos:station:USF.COMPS:ANC:1,2012-06-01T15:06:00Z,28.1930,-82.7890,1.0,30.06,1111122 
COMPS,ioos:station:USF.COMPS:ANC:1,2012-06-01T15:12:00Z,28.1930,-82.7890,1.0,30.059,1111122 
COMPS,ioos:station:USF.COMPS:ANC:1,2012-06-01T15:18:00Z,28.1930,-82.7890,1.0,30.065,1111122 
COMPS,ioos:station:USF.COMPS:ANC:1,2012-06-01T15:24:00Z,28.1930,-82.7890,1.0,30.07,1111122 
COMPS,ioos:station:USF.COMPS:ANC:1,2012-06-01T15:30:00Z,28.1930,-82.7890,1.0,30.057,1111122 
COMPS,ioos:station:USF.COMPS:ANC:1,2012-06-01T15:36:00Z,28.1930,-82.7890,1.0,30.07,1111122 
COMPS,ioos:station:USF.COMPS:ANC:1,2012-06-01T15:42:00Z,28.1930,-82.7890,1.0,30.062,1111122 
COMPS,ioos:station:USF.COMPS:ANC:1,2012-06-01T15:48:00Z,28.1930,-82.7890,1.0,30.048,1111122 
COMPS,ioos:station:USF.COMPS:ANC:1,2012-06-01T15:54:00Z,28.1930,-82.7890,0.0,30.037,1111122 
COMPS,ioos:station:USF.COMPS:ANC:1,2012-06-01T16:00:00Z,28.1930,-82.7890,1.0,30.033,1111122 
COMPS,ioos:station:USF.COMPS:ANC:1,2012-06-01T16:06:00Z,28.1930,-82.7890,1.0,30.032,1111122 
COMPS,ioos:station:USF.COMPS:ANC:1,2012-06-01T16:12:00Z,28.1930,-82.7890,1.0,30.025,1111122 
COMPS,ioos:station:USF.COMPS:ANC:1,2012-06-01T16:18:00Z,28.1930,-82.7890,1.0,30.024,1111122 
COMPS,ioos:station:USF.COMPS:ANC:1,2012-06-01T16:24:00Z,28.1930,-82.7890,1.0,30.031,1111122 
COMPS,ioos:station:USF.COMPS:ANC:1,2012-06-01T16:30:00Z,28.1930,-82.7890,1.0,30.043,1111122 
COMPS,ioos:station:USF.COMPS:ANC:1,2012-06-01T16:36:00Z,28.1930,-82.7890,1.0,30.05,1111122 
COMPS,ioos:station:USF.COMPS:ANC:1,2012-06-01T16:42:00Z,28.1930,-82.7890,1.0,30.056,1111122 
COMPS,ioos:station:USF.COMPS:ANC:1,2012-06-01T16:48:00Z,28.1930,-82.7890,1.0,30.062,1111122 
COMPS,ioos:station:USF.COMPS:ANC:1,2012-06-01T16:54:00Z,28.1930,-82.7890,0.0,30.061,1111122 
COMPS,ioos:station:USF.COMPS:ANC:1,2012-06-01T17:00:00Z,28.1930,-82.7890,1.0,30.062,1111122 
COMPS,ioos:station:USF.COMPS:ANC:1,2012-06-01T17:06:00Z,28.1930,-82.7890,1.0,30.075,1111122 
COMPS,ioos:station:USF.COMPS:ANC:1,2012-06-01T17:12:00Z,28.1930,-82.7890,1.0,30.087,1111122 
COMPS,ioos:station:USF.COMPS:ANC:1,2012-06-01T17:18:00Z,28.1930,-82.7890,1.0,30.087,1111122 
COMPS,ioos:station:USF.COMPS:ANC:1,2012-06-01T17:24:00Z,28.1930,-82.7890,1.0,30.08,1111122 
COMPS,ioos:station:USF.COMPS:ANC:1,2012-06-01T17:30:00Z,28.1930,-82.7890,1.0,30.08,1111122 
COMPS,ioos:station:USF.COMPS:ANC:1,2012-06-01T17:36:00Z,28.1930,-82.7890,1.0,30.072,1111122 
COMPS,ioos:station:USF.COMPS:ANC:1,2012-06-01T17:42:00Z,28.1930,-82.7890,1.0,30.071,1111122 
COMPS,ioos:station:USF.COMPS:ANC:1,2012-06-01T17:48:00Z,28.1930,-82.7890,1.0,30.07,1111122 
COMPS,ioos:station:USF.COMPS:ANC:1,2012-06-01T17:54:00Z,28.1930,-82.7890,0.0,30.071,1111122 
COMPS,ioos:station:USF.COMPS:ANC:1,2012-06-01T18:00:00Z,28.1930,-82.7890,1.0,30.068,1111122 
COMPS,ioos:station:USF.COMPS:ANC:1,2012-06-01T18:06:00Z,28.1930,-82.7890,1.0,30.054,1111122 
COMPS,ioos:station:USF.COMPS:ANC:1,2012-06-01T18:12:00Z,28.1930,-82.7890,1.0,30.06,1111122 
COMPS,ioos:station:USF.COMPS:ANC:1,2012-06-01T18:18:00Z,28.1930,-82.7890,1.0,30.059,1111122 
COMPS,ioos:station:USF.COMPS:ANC:1,2012-06-01T18:24:00Z,28.1930,-82.7890,1.0,30.072,1111122 
COMPS,ioos:station:USF.COMPS:ANC:1,2012-06-01T18:30:00Z,28.1930,-82.7890,1.0,30.078,1111122 
COMPS,ioos:station:USF.COMPS:ANC:1,2012-06-01T18:36:00Z,28.1930,-82.7890,1.0,30.077,1111122 
COMPS,ioos:station:USF.COMPS:ANC:1,2012-06-01T18:42:00Z,28.1930,-82.7890,1.0,30.083,1111122 
COMPS,ioos:station:USF.COMPS:ANC:1,2012-06-01T18:48:00Z,28.1930,-82.7890,1.0,30.089,1111122 
COMPS,ioos:station:USF.COMPS:ANC:1,2012-06-01T18:54:00Z,28.1930,-82.7890,0.0,30.062,1111122 
COMPS,ioos:station:USF.COMPS:ANC:1,2012-06-01T19:00:00Z,28.1930,-82.7890,1.0,30.082,1111122 
COMPS,ioos:station:USF.COMPS:ANC:1,2012-06-01T19:06:00Z,28.1930,-82.7890,1.0,30.101,1111122 
COMPS,ioos:station:USF.COMPS:ANC:1,2012-06-01T19:12:00Z,28.1930,-82.7890,1.0,30.114,1111122 
COMPS,ioos:station:USF.COMPS:ANC:1,2012-06-01T19:18:00Z,28.1930,-82.7890,1.0,30.121,1111122 
COMPS,ioos:station:USF.COMPS:ANC:1,2012-06-01T19:24:00Z,28.1930,-82.7890,1.0,30.039,1111122 
COMPS,ioos:station:USF.COMPS:ANC:1,2012-06-01T19:30:00Z,28.1930,-82.7890,1.0,29.939,1111122 
COMPS,ioos:station:USF.COMPS:ANC:1,2012-06-01T19:36:00Z,28.1930,-82.7890,1.0,29.952,1111122 
COMPS,ioos:station:USF.COMPS:ANC:1,2012-06-01T19:42:00Z,28.1930,-82.7890,1.0,29.965,1111122 
COMPS,ioos:station:USF.COMPS:ANC:1,2012-06-01T19:48:00Z,28.1930,-82.7890,1.0,29.972,1111122 
COMPS,ioos:station:USF.COMPS:ANC:1,2012-06-01T19:54:00Z,28.1930,-82.7890,0.0,29.984,1111122 
COMPS,ioos:station:USF.COMPS:ANC:1,2012-06-01T20:00:00Z,28.1930,-82.7890,1.0,29.979,1111122 
COMPS,ioos:station:USF.COMPS:ANC:1,2012-06-01T20:06:00Z,28.1930,-82.7890,1.0,29.979,1111122 
COMPS,ioos:station:USF.COMPS:ANC:1,2012-06-01T20:12:00Z,28.1930,-82.7890,1.0,29.98,1111122 
COMPS,ioos:station:USF.COMPS:ANC:1,2012-06-01T20:18:00Z,28.1930,-82.7890,1.0,29.987,1111122 
COMPS,ioos:station:USF.COMPS:ANC:1,2012-06-01T20:24:00Z,28.1930,-82.7890,1.0,29.987,1111122 
COMPS,ioos:station:USF.COMPS:ANC:1,2012-06-01T20:30:00Z,28.1930,-82.7890,1.0,29.981,1111122 
COMPS,ioos:station:USF.COMPS:ANC:1,2012-06-01T20:36:00Z,28.1930,-82.7890,1.0,29.974,1111122 
COMPS,ioos:station:USF.COMPS:ANC:1,2012-06-01T20:42:00Z,28.1930,-82.7890,1.0,29.988,1111122 
COMPS,ioos:station:USF.COMPS:ANC:1,2012-06-01T20:48:00Z,28.1930,-82.7890,1.0,29.988,1111122 
COMPS,ioos:station:USF.COMPS:ANC:1,2012-06-01T20:54:00Z,28.1930,-82.7890,0.0,29.989,1111122 
COMPS,ioos:station:USF.COMPS:ANC:1,2012-06-01T21:00:00Z,28.1930,-82.7890,1.0,30.001,1111122 
COMPS,ioos:station:USF.COMPS:ANC:1,2012-06-01T21:06:00Z,28.1930,-82.7890,1.0,29.995,1111122 
COMPS,ioos:station:USF.COMPS:ANC:1,2012-06-01T21:12:00Z,28.1930,-82.7890,1.0,30.002,1111122 
COMPS,ioos:station:USF.COMPS:ANC:1,2012-06-01T21:18:00Z,28.1930,-82.7890,1.0,30.002,1111122 
COMPS,ioos:station:USF.COMPS:ANC:1,2012-06-01T21:24:00Z,28.1930,-82.7890,1.0,30.009,1111122 
COMPS,ioos:station:USF.COMPS:ANC:1,2012-06-01T21:30:00Z,28.1930,-82.7890,1.0,29.996,1111122 
COMPS,ioos:station:USF.COMPS:ANC:1,2012-06-01T21:36:00Z,28.1930,-82.7890,1.0,29.996,1111122 
COMPS,ioos:station:USF.COMPS:ANC:1,2012-06-01T21:42:00Z,28.1930,-82.7890,1.0,29.959,1111122 
COMPS,ioos:station:USF.COMPS:ANC:1,2012-06-01T21:48:00Z,28.1930,-82.7890,1.0,29.952,1111122 
COMPS,ioos:station:USF.COMPS:ANC:1,2012-06-01T21:54:00Z,28.1930,-82.7890,0.0,29.449,1111122 
COMPS,ioos:station:USF.COMPS:ANC:1,2012-06-01T22:00:00Z,28.1930,-82.7890,1.0,29.332,1111122 
COMPS,ioos:station:USF.COMPS:ANC:1,2012-06-01T22:06:00Z,28.1930,-82.7890,1.0,30.021,1111122 
COMPS,ioos:station:USF.COMPS:ANC:1,2012-06-01T22:12:00Z,28.1930,-82.7890,1.0,29.272,1111122 
COMPS,ioos:station:USF.COMPS:ANC:1,2012-06-01T22:18:00Z,28.1930,-82.7890,1.0,29.985,1111122 
COMPS,ioos:station:USF.COMPS:ANC:1,2012-06-01T22:24:00Z,28.1930,-82.7890,1.0,30.048,1111122 
COMPS,ioos:station:USF.COMPS:ANC:1,2012-06-01T22:30:00Z,28.1930,-82.7890,1.0,30.048,1111122 
COMPS,ioos:station:USF.COMPS:ANC:1,2012-06-01T22:36:00Z,28.1930,-82.7890,1.0,30.055,1111122 
COMPS,ioos:station:USF.COMPS:ANC:1,2012-06-01T22:42:00Z,28.1930,-82.7890,1.0,30.063,1111122 
COMPS,ioos:station:USF.COMPS:ANC:1,2012-06-01T22:48:00Z,28.1930,-82.7890,1.0,30.069,1111122 
COMPS,ioos:station:USF.COMPS:ANC:1,2012-06-01T22:54:00Z,28.1930,-82.7890,0.0,30.07,1111122 
COMPS,ioos:station:USF.COMPS:ANC:1,2012-06-01T23:00:00Z,28.1930,-82.7890,1.0,30.071,1111122 
COMPS,ioos:station:USF.COMPS:ANC:1,2012-06-01T23:06:00Z,28.1930,-82.7890,1.0,30.065,1111122 
COMPS,ioos:station:USF.COMPS:ANC:1,2012-06-01T23:12:00Z,28.1930,-82.7890,1.0,30.072,1111122 
COMPS,ioos:station:USF.COMPS:ANC:1,2012-06-01T23:18:00Z,28.1930,-82.7890,1.0,30.029,1111122 
COMPS,ioos:station:USF.COMPS:ANC:1,2012-06-01T23:24:00Z,28.1930,-82.7890,1.0,30.074,1111122 
COMPS,ioos:station:USF.COMPS:ANC:1,2012-06-01T23:30:00Z,28.1930,-82.7890,1.0,30.081,1111122 
COMPS,ioos:station:USF.COMPS:ANC:1,2012-06-01T23:36:00Z,28.1930,-82.7890,1.0,30.082,1111122 
COMPS,ioos:station:USF.COMPS:ANC:1,2012-06-01T23:42:00Z,28.1930,-82.7890,1.0,30.077,1111122 
COMPS,ioos:station:USF.COMPS:ANC:1,2012-06-01T23:48:00Z,28.1930,-82.7890,1.0,30.084,1111122 
COMPS,ioos:station:USF.COMPS:ANC:1,2012-06-01T23:54:00Z,28.1930,-82.7890,0.0,30.08,1111122 
COMPS,ioos:station:USF.COMPS:ANC:1,2012-06-02T00:00:00Z,28.1930,-82.7890,1.0,30.08,1111122 
COMPS,ioos:station:USF.COMPS:ANC:1,2012-06-02T00:06:00Z,28.1930,-82.7890,1.0,30.074,1111122 
COMPS,ioos:station:USF.COMPS:ANC:1,2012-06-02T00:12:00Z,28.1930,-82.7890,1.0,30.076,1111122 
COMPS,ioos:station:USF.COMPS:ANC:1,2012-06-02T00:18:00Z,28.1930,-82.7890,1.0,30.07,1111122 
COMPS,ioos:station:USF.COMPS:ANC:1,2012-06-02T00:24:00Z,28.1930,-82.7890,1.0,30.072,1111122 
COMPS,ioos:station:USF.COMPS:ANC:1,2012-06-02T00:30:00Z,28.1930,-82.7890,1.0,30.06,1111122 
COMPS,ioos:station:USF.COMPS:ANC:1,2012-06-02T00:36:00Z,28.1930,-82.7890,1.0,30.061,1111122 
COMPS,ioos:station:USF.COMPS:ANC:1,2012-06-02T00:42:00Z,28.1930,-82.7890,1.0,30.049,1111122 
COMPS,ioos:station:USF.COMPS:ANC:1,2012-06-02T00:48:00Z,28.1930,-82.7890,1.0,30.037,1111122 
COMPS,ioos:station:USF.COMPS:ANC:1,2012-06-02T00:54:00Z,28.1930,-82.7890,0.0,30.035,1111122 
COMPS,ioos:station:USF.COMPS:ANC:1,2012-06-02T01:00:00Z,28.1930,-82.7890,1.0,30.019,1111122 
COMPS,ioos:station:USF.COMPS:ANC:1,2012-06-02T01:06:00Z,28.1930,-82.7890,1.0,30.02,1111122 
COMPS,ioos:station:USF.COMPS:ANC:1,2012-06-02T01:12:00Z,28.1930,-82.7890,1.0,30.013,1111122 
COMPS,ioos:station:USF.COMPS:ANC:1,2012-06-02T01:18:00Z,28.1930,-82.7890,1.0,29.995,1111122 
COMPS,ioos:station:USF.COMPS:ANC:1,2012-06-02T01:24:00Z,28.1930,-82.7890,1.0,29.969,1111122 
COMPS,ioos:station:USF.COMPS:ANC:1,2012-06-02T01:30:00Z,28.1930,-82.7890,1.0,29.936,1111122 
COMPS,ioos:station:USF.COMPS:ANC:1,2012-06-02T01:36:00Z,28.1930,-82.7890,1.0,29.89,1111122 